TimeEDT,TemperatureF,Dew PointF,Humidity,Sea Level PressureIn,VisibilityMPH,Wind Direction,Wind SpeedMPH,Gust SpeedMPH,PrecipitationIn,Events,Conditions,WindDirDegrees,DateUTC
12:53 AM,55.9,54.0,93,29.84,10.0,Calm,Calm,-,N/A,,Clear,0,2013-06-15 04:53:00
1:53 AM,55.9,53.1,90,29.85,4.0,NNE,6.9,-,N/A,,Clear,30,2013-06-15 05:53:00
2:53 AM,55.0,51.1,86,29.87,10.0,Calm,Calm,-,N/A,,Clear,0,2013-06-15 06:53:00
3:53 AM,53.1,51.1,93,29.88,9.0,ENE,3.5,-,N/A,,Clear,70,2013-06-15 07:53:00
4:53 AM,55.9,50.0,80,29.89,10.0,North,3.5,-,N/A,,Clear,360,2013-06-15 08:53:00
5:53 AM,51.1,50.0,96,29.91,10.0,Calm,Calm,-,N/A,,Clear,0,2013-06-15 09:53:00
6:53 AM,60.1,53.1,78,29.93,10.0,Calm,Calm,-,N/A,,Clear,0,2013-06-15 10:53:00
7:53 AM,64.9,51.1,61,29.94,10.0,North,4.6,-,N/A,,Clear,10,2013-06-15 11:53:00
8:53 AM,69.1,51.1,53,29.95,10.0,Calm,Calm,-,N/A,,Clear,0,2013-06-15 12:53:00
9:53 AM,71.1,46.9,42,29.96,10.0,West,3.5,-,N/A,,Clear,280,2013-06-15 13:53:00
10:53 AM,73.0,45.0,37,29.95,10.0,NW,9.2,-,N/A,,Clear,320,2013-06-15 14:53:00
11:53 AM,75.0,44.1,33,29.95,10.0,West,9.2,-,N/A,,Clear,280,2013-06-15 15:53:00
12:53 PM,78.1,45.0,31,29.94,10.0,NW,13.8,-,N/A,,Clear,310,2013-06-15 16:53:00
1:53 PM,77.0,42.1,29,29.94,10.0,WNW,13.8,-,N/A,,Clear,290,2013-06-15 17:53:00
2:53 PM,78.1,39.9,25,29.91,10.0,NNW,13.8,21.9,N/A,,Clear,330,2013-06-15 18:53:00
3:53 PM,79.0,39.9,25,29.91,10.0,WNW,15.0,-,N/A,,Clear,300,2013-06-15 19:53:00
4:53 PM,80.1,43.0,27,29.90,10.0,NW,12.7,-,N/A,,Clear,320,2013-06-15 20:53:00
5:53 PM,79.0,43.0,28,29.90,10.0,WNW,11.5,-,N/A,,Clear,300,2013-06-15 21:53:00
6:53 PM,77.0,46.0,33,29.90,10.0,WNW,6.9,-,N/A,,Clear,300,2013-06-15 22:53:00
7:53 PM,73.9,46.9,38,29.91,10.0,NW,5.8,-,N/A,,Clear,310,2013-06-15 23:53:00
8:53 PM,64.9,53.1,65,29.93,10.0,Calm,Calm,-,N/A,,Clear,0,2013-06-16 00:53:00
9:53 PM,59.0,54.0,83,29.95,10.0,Calm,Calm,-,N/A,,Clear,0,2013-06-16 01:53:00
10:53 PM,55.9,52.0,87,29.96,10.0,Calm,Calm,-,N/A,,Clear,0,2013-06-16 02:53:00
11:53 PM,57.9,51.1,78,29.97,10.0,Calm,Calm,-,N/A,,Clear,0,2013-06-16 03:53:00